Home > Weather > Vantaa > Past weeks

Flag for Finland Weather for the Past 2 Weeks in Vantaa, Finland

Now
57 °F

Passing clouds.


Feels Like: 56 °F
Forecast: 46 / 67 °F
Wind: 6 mph from Northwest

Location: Helsinki-Vantaa

Current Time: May 6, 2016 at 9:31:26 AM

Latest Report: May 6, 2016 at 8:50 AM


Visibility: N/A

Pressure: 30.21 "Hg

Humidity: 39%

Dew Point: 32 °F

Location of VantaaLocation

Historic Weather in Vantaa — Graph

°F

Vantaa Temperature Yesterday

Maximum temperature yesterday: 70 °F (at 1:50 PM)
Minimum temperature yesterday: 39 °F (at 5:50 AM)
Average temperature yesterday: 59 °F

High & Low Weather Summary for the Past Weeks

 TemperatureHumidityPressure
High70 °F (May 5, 1:50 PM)100% (Apr 22, 3:20 AM)30.36 "Hg (Apr 22, 3:20 AM)
Low28 °F (Apr 24, 4:20 AM)26% (May 4, 6:50 PM)29.42 "Hg (Apr 25, 4:50 AM)
Average45 °F72%29.97 "Hg
* Reported Apr 21 8:20 AM — May 6 8:20 AM, Vantaa, Weather by CustomWeather, © 2016

Note: Actual official high and low records may vary slightly from our data, if they occured in-between our weather recording intervals... More about our weather records

Advertising

Vantaa Weather History for the Previous 24 Hours

Scroll right to see more
 ConditionsComfort  
Time TempWeatherWind HumidityBarometerVisibility
8:20 AM
Fri, May 6
55 °FSunny.3 mph44%30.21 "Hg10 mi
7:50 AM54 °FSunny.5 mph51%30.21 "Hg10 mi
7:20 AM50 °FPassing clouds.5 mph58%30.21 "HgN/A
6:50 AM48 °FSunny.2 mph66%30.21 "Hg10 mi
6:20 AM48 °FSunny.5 mph66%30.21 "Hg10 mi
5:50 AM48 °FClear.5 mph66%30.21 "Hg10 mi
5:20 AM48 °FClear.6 mph66%30.21 "Hg10 mi
4:50 AM46 °FClear.5 mph71%30.21 "Hg10 mi
4:20 AM45 °FClear.3 mph76%30.21 "Hg10 mi
3:50 AM50 °FClear.5 mph62%30.21 "Hg10 mi
3:20 AM52 °FClear.5 mph58%30.21 "Hg10 mi
2:50 AM52 °FClear.6 mph58%30.21 "Hg10 mi
2:20 AM52 °FClear.6 mph62%30.21 "Hg10 mi
1:50 AM54 °FClear.8 mph58%30.21 "Hg10 mi
1:20 AM55 °FClear.8 mph55%30.21 "Hg10 mi
12:50 AM55 °FClear.7 mph55%30.21 "Hg10 mi
12:20 AM55 °FClear.8 mph51%30.21 "Hg10 mi
11:50 PM
Thu, May 5
55 °FClear.6 mph51%30.21 "Hg10 mi
11:20 PM55 °FClear.7 mph51%30.21 "Hg10 mi
10:50 PM57 °FClear.7 mph44%30.18 "Hg10 mi
10:20 PM57 °FSunny.6 mph44%30.18 "Hg10 mi
9:50 PM59 °FSunny.7 mph42%30.18 "Hg10 mi
9:20 PM61 °FSunny.7 mph42%30.18 "Hg10 mi
8:50 PM63 °FSunny.9 mph39%30.18 "Hg10 mi
8:20 PM66 °FSunny.10 mph30%30.18 "Hg10 mi
7:50 PM66 °FSunny.12 mph30%30.18 "Hg10 mi
7:20 PM68 °FSunny.13 mph28%30.18 "Hg10 mi
6:50 PM68 °FSunny.13 mph30%30.18 "Hg10 mi
6:20 PM68 °FSunny.13 mph30%30.18 "Hg10 mi
5:50 PM68 °FSunny.15 mph30%30.18 "Hg10 mi
5:20 PM68 °FSunny.14 mph30%30.21 "Hg10 mi
4:50 PM70 °FSunny.13 mph31%30.21 "Hg10 mi
4:20 PM70 °FSunny.12 mph27%30.21 "Hg10 mi
3:50 PM70 °FSunny.13 mph29%30.21 "Hg10 mi
3:20 PM70 °FSunny.12 mph31%30.21 "Hg10 mi
2:50 PM70 °FSunny.8 mph29%30.21 "Hg10 mi
2:20 PM70 °FPassing clouds.7 mph27%30.21 "HgN/A
1:50 PM70 °FSunny.6 mph27%30.21 "Hg10 mi
1:20 PM68 °FPassing clouds.6 mph28%30.21 "HgN/A
12:50 PM68 °FSunny.2 mph26%30.24 "Hg10 mi
12:20 PM66 °FSunny.5 mph30%30.24 "Hg10 mi
11:50 AM66 °FSunny.3 mph32%30.24 "Hg10 mi
11:20 AM66 °FPassing clouds.5 mph35%30.24 "HgN/A
10:50 AM64 °FPassing clouds.5 mph34%30.24 "HgN/A
10:20 AM63 °FSunny.5 mph39%30.24 "Hg10 mi
9:50 AM61 °FSunny.3 mph45%30.24 "Hg10 mi
9:20 AM57 °FSunny.5 mph51%30.24 "Hg10 mi
Weather by CustomWeather, © 2016

See weather overviewHow to use our weather pages